Regional Weather Roundup
Issued by NWS

Home | Current Version | Previous Version | Graphics & Text | Print | Product List | Glossary On
Versions: 1 2 3 4 5 6 7 8 9 10 11 12 13 14 15 16 17 18 19 20 21 22 23 24 25 26 27 28 29 30 31 32 33 34 35 36 37 38 39 40 41 42 43 44 45 46 47 48 49 50
405
ASUS45 KCYS 011610
RWRWY

WYOMING REGIONAL WEATHER ROUNDUP
NATIONAL WEATHER SERVICE CHEYENNE WY
1000 AM MDT SUN MAY 01 2016

NOTE:  "FAIR" INDICATES FEW OR NO CLOUDS BELOW 12,000 FEET
WITH NO SIGNIFICANT WEATHER AND/OR OBSTRUCTIONS TO VISIBILITY.

WYZ001-011700-
YELLOWSTONE NATIONAL PARK

CITY           SKY/WX    TMP DP  RH WIND       PRES   REMARKS
LK YELLOWSTONE   N/A     35  18  49 VRB3      30.32S
W YELLOWSTONE  NOT AVBL

$$
WYZ002>013-054>058-071-098>099-011700-
NORTHERN WYOMING

CITY           SKY/WX    TMP DP  RH WIND       PRES   REMARKS
JACKSON        MOSUNNY   45  19  36 NE13G20   30.26S
CODY           FAIR      46  32  57 N10       30.33S
GREYBULL       FAIR      49  34  56 CALM      30.32F
WORLAND        FAIR      48  36  63 CALM      30.32F
SHERIDAN       FAIR      53  26  35 E5        30.35F
BUFFALO          N/A    N/A N/A N/A MISG      30.35S
GILLETTE         N/A     46  28  49 MISG      30.34F
HULETT         FAIR      46  28  49 N7        30.35F
NEWCASTLE      FAIR      46  21  36 NE8       30.33F

$$
WYZ014>020-022>026-101>103-011700-
CENTRAL WYOMING

CITY           SKY/WX    TMP DP  RH WIND       PRES   REMARKS
BIG PINEY      FAIR      38  23  55 VRB5      30.28S WCI  34
PINEDALE       FAIR      39  23  52 W3        30.27S
DUBOIS         NOT AVBL
LANDER         CLOUDY    38  31  76 CALM      30.33S
RIVERTON       CLOUDY    38  31  76 SE6       30.35S WCI  33
CASPER         FAIR      42  24  49 NE14G25   30.33S
DOUGLAS        PTSUNNY   43  25  49 NE9       30.34F

$$
WYZ021-027>030-104>119-011700-
SOUTHERN WYOMING

CITY           SKY/WX    TMP DP  RH WIND       PRES   REMARKS
EVANSTON       FAIR      34  20  56 E32G43    30.18F WCI  20
KEMMERER       PTSUNNY   34  27  75 E28G37    30.24S WCI  20
FORT BRIDGER   CLOUDY    36  25  64 E24G31    30.27S WCI  24
ROCK SPRINGS   FAIR      36  22  56 E32G40    30.25S WCI  23
DIXON          FAIR      41  22  47 NE17G28   30.21F
RAWLINS        FAIR      34  23  64 E16       30.30S WCI  24
SARATOGA       FAIR      36  23  60 NE7G18    30.27F WCI  30
LARAMIE        CLOUDY    29  21  72 NE8       30.29S WCI  21
CHEYENNE       CLOUDY    35  26  69 N9        30.32R WCI  28
TORRINGTON     CLOUDY    44  23  43 N12       30.32S
PINE BLUFFS    CLOUDY    36  32  87 N12       30.33S WCI  27

$$




USA.gov is the U.S. government's official web portal to all federal, state and local government web resources and services.